Regional Weather Roundup
Issued by NWS

Home | Current Version | Previous Version | Text Only | Print | Product List | Glossary On
Versions: 1 2 3 4 5 6 7 8 9 10 11 12 13 14 15 16 17 18 19 20 21 22 23 24 25 26 27 28 29 30 31 32 33 34 35 36 37 38 39 40 41 42 43 44 45 46 47 48 49 50
000
ASUS42 KFFC 261903
RWRGA
WEATHER ROUNDUP FOR GEORGIA
NATIONAL WEATHER SERVICE PEACHTREE CITY GA
300 PM EDT SUN APR 26 2015

NOTE: "FAIR" INDICATES FEW OR NO CLOUDS BELOW 12,000 FEET WITH NO
SIGNIFICANT WEATHER AND/OR OBSTRUCTIONS TO VISIBILITY.

* = USE WITH CAUTION. THE STATIONS MARKED WITH AN ASTERISK MAY NOT
REPORT WEATHER SUCH AS PRECIPITATION, FOG, OR THUNDER AND ARE NOT
QUALITY CONTROLLED BY NWS.

THE REMARK "TC" DENOTES TEMPERATURE READING IN DEGREES CELSIUS.

GAZ001>058-262000-
NORTH GEORGIA

CITY           SKY/WX    TMP DP  RH WIND       PRES   REMARKS
ATLANTA        MOSUNNY   81  57  43 NW16G24   29.67F
ATHENS         MOSUNNY   83  55  38 W13G25    29.64S
CHAMBLEE       MOSUNNY   79  57  46 W14G22    29.67S
PEACHTREE CITY MOSUNNY   81  57  43 NW15G22   29.69F
ROME           MOSUNNY   79  57  46 NW14G22   29.68R
WEST ATLANTA   MOSUNNY   81  57  43 W16G23    29.67S
GAINESVILLE    SUNNY     79  54  41 W13G24    29.67S
CARTERSVILLE   MOSUNNY   79  57  46 VRB5      29.68S


CITY           SKY/WX    TMP DP  RH WIND       PRES   REMARKS
DALTON*        PTSUNNY   72  55  56 W9G23     29.70S
LAWRENCEVILLE* PTSUNNY   79  54  41 W16G24    29.66F
KENNESAW*      MOSUNNY   81  59  47 NW20G26   29.68F
BLAIRSVILLE*     N/A     72  20  14 NW7       29.71S
$$

GAZ059>098-102>109-262000-
CENTRAL GEORGIA

CITY           SKY/WX    TMP DP  RH WIND       PRES   REMARKS
AUGUSTA-BUSH   MOSUNNY   83  60  45 W13G18    29.61F
AUGUSTA-DANIEL MOSUNNY   83  60  45 W10G20    29.63F
COLUMBUS       MOSUNNY   84  57  39 NW10G16   29.69F
MACON          MOSUNNY   83  61  47 NW12      29.66F


CITY           SKY/WX    TMP DP  RH WIND       PRES   REMARKS
LAGRANGE*      MOSUNNY   85  63  47 W14G21    29.70S
SYLVANIA*      SUNNY     84  65  53 W10G18    29.65F
MILLEDGEVILLE* MOSUNNY   81  64  57 W7        29.66S
$$

GAZ099>101-110>166-262000-
SOUTH GEORGIA

CITY           SKY/WX    TMP DP  RH WIND       PRES   REMARKS
SAVANNAH       MOSUNNY   86  60  41 W13       29.64F
VALDOSTA       SUNNY     87  64  46 VRB6      29.71F
ALMA           SUNNY     86  58  38 W14G20    29.68F
ST SIMONS      SUNNY     87  59  38 W14G23    29.67F
FT STEWART     SUNNY     87  59  39 W13       29.64F
ALBANY         MOSUNNY   86  65  49 W10       29.72F
HUNTER AFB     SUNNY     86  64  46 W17       29.62F
MOODY AFB      MOSUNNY   87  60  39 W12G21    29.70F
BRUNSWICK      SUNNY     88  55  33 W14G21    29.67F


CITY           SKY/WX    TMP DP  RH WIND       PRES   REMARKS
BAINBRIDGE*    SUNNY     88  70  55 SW9       29.72F HX  92
MOULTRIE*      SUNNY     84  63  48 W13       29.72F
VIDALIA*       SUNNY     84  59  42 SW17      29.67F HAZE
WAYCROSS*      MOSUNNY   90  65  43 W13G22    29.68F HX  91
DOUGLAS*       SUNNY     88  59  37 W12G18    29.70F
$$



USA.gov is the U.S. government's official web portal to all federal, state and local government web resources and services.